| time (UTC) | temp F | wind direction | speed MPH | gust MPH | rain 1hr in | rain 24hr in | rain mn in | humidity % | barometer mb |
| 20260509194829 | 54 | 349 | 0.0 | 0.0 | 0.00 | 0.00 | 0.00 | 94 | |
| 20260509193325 | 53 | 349 | 0.0 | 0.0 | 0.00 | 0.00 | 0.00 | 93 | |
| 20260509191823 | 52 | 349 | 0.0 | 0.0 | 0.00 | 0.00 | 0.00 | 93 | |
| 20260509190342 | 52 | 349 | 0.0 | 0.0 | 0.00 | 0.00 | 0.00 | 93 | |
| 20260509184820 | 53 | 349 | 0.0 | 0.0 | 0.00 | 0.00 | 0.00 | 93 | |
| 20260509183322 | 53 | 349 | 0.0 | 0.0 | 0.00 | 0.00 | 0.00 | 93 | |
| 20260509181819 | 53 | 349 | 0.0 | 0.0 | 0.00 | 0.00 | 0.00 | 93 | |
| 20260509180318 | 53 | 349 | 0.0 | 0.0 | 0.00 | 0.00 | 0.00 | 93 | |
| 20260509174820 | 53 | 349 | 0.0 | 0.0 | 0.00 | 0.00 | 0.00 | 93 | |
| 20260509173338 | 53 | 349 | 0.0 | 0.0 | 0.00 | 0.00 | 0.00 | 93 | |
| 20260509171819 | 53 | 349 | 0.0 | 0.0 | 0.00 | 0.00 | 0.00 | 93 | |
| 20260509170317 | 53 | 349 | 0.0 | 0.0 | 0.00 | 0.00 | 0.00 | 93 | |
| 20260509164814 | 52 | 349 | 0.0 | 0.0 | 0.00 | 0.00 | 0.00 | 93 | |
| 20260509163335 | 53 | 349 | 0.0 | 0.0 | 0.00 | 0.00 | 0.00 | 93 | |
| 20260509161812 | 52 | 349 | 0.0 | 0.0 | 0.00 | 0.00 | 0.00 | 93 | |
| 20260509160311 | 53 | 349 | 0.0 | 0.0 | 0.00 | 0.00 | 0.00 | 93 | |
| 20260509154836 | 52 | 349 | 0.0 | 0.0 | 0.00 | 0.00 | 0.00 | 92 | |
| 20260509153337 | 53 | 349 | 0.0 | 0.0 | 0.00 | 0.00 | 0.00 | 92 | |
| 20260509151840 | 53 | 349 | 0.0 | 0.0 | 0.00 | 0.00 | 0.00 | 92 | |
| 20260509150321 | 53 | 349 | 0.0 | 0.0 | 0.00 | 0.00 | 0.00 | 92 | |
| 20260509144817 | 53 | 349 | 0.0 | 0.0 | 0.00 | 0.00 | 0.00 | 92 | |
| 20260509143319 | 53 | 349 | 0.0 | 0.0 | 0.00 | 0.00 | 0.00 | 93 | |
| 20260509141839 | 53 | 349 | 0.0 | 0.0 | 0.00 | 0.00 | 0.00 | 93 | |
| 20260509140318 | 52 | 349 | 0.0 | 0.0 | 0.00 | 0.00 | 0.00 | 92 | |
| 20260509134818 | 52 | 349 | 0.0 | 0.0 | 0.00 | 0.00 | 0.00 | 92 | |
| 20260509133313 | 52 | 349 | 0.0 | 0.0 | 0.00 | 0.00 | 0.00 | 92 | |
| 20260509131815 | 52 | 349 | 0.0 | 2.0 | 0.00 | 0.00 | 0.00 | 92 | |
| 20260509130313 | 52 | 349 | 0.0 | 2.0 | 0.00 | 0.00 | 0.00 | 92 | |
| 20260509124811 | 52 | 349 | 0.0 | 1.0 | 0.00 | 0.00 | 0.00 | 91 | |
| 20260509123333 | 52 | 349 | 0.0 | 0.0 | 0.00 | 0.00 | 0.00 | 91 | |
| 20260509121830 | 52 | 349 | 0.0 | 0.0 | 0.00 | 0.00 | 0.00 | 91 | |
| 20260509120324 | 52 | 349 | 0.0 | 0.0 | 0.00 | 0.00 | 0.00 | 91 | |
| 20260509114824 | 52 | 349 | 0.0 | 0.0 | 0.00 | 0.00 | 0.00 | 91 | |
| 20260509113322 | 52 | 349 | 0.0 | 0.0 | 0.00 | 0.00 | 0.00 | 91 | |
| 20260509111823 | 52 | 349 | 0.0 | 0.0 | 0.00 | 0.00 | 0.00 | 91 | |
| 20260509110321 | 53 | 349 | 0.0 | 0.0 | 0.00 | 0.00 | 0.00 | 91 | |
| 20260509104818 | 53 | 349 | 0.0 | 0.0 | 0.00 | 0.00 | 0.00 | 90 | |
| 20260509103319 | 53 | 349 | 0.0 | 0.0 | 0.00 | 0.00 | 0.00 | 90 | |
| 20260509101816 | 53 | 349 | 0.0 | 0.0 | 0.00 | 0.00 | 0.00 | 90 | |
| 20260509100317 | 54 | 349 | 0.0 | 0.0 | 0.00 | 0.00 | 0.00 | 90 | |
| 20260509094813 | 54 | 349 | 0.0 | 2.0 | 0.00 | 0.00 | 0.00 | 90 | |
| 20260509093311 | 54 | 349 | 0.0 | 1.0 | 0.00 | 0.00 | 0.00 | 89 | |
| 20260509091811 | 54 | 349 | 0.0 | 2.0 | 0.00 | 0.00 | 0.00 | 89 | |
| 20260509090309 | 55 | 349 | 0.0 | 0.0 | 0.00 | 0.00 | 0.00 | 89 | |
| 20260509084826 | 55 | 349 | 0.0 | 0.0 | 0.00 | 0.00 | 0.00 | 88 | |
| 20260509083328 | 55 | 349 | 0.0 | 0.0 | 0.00 | 0.00 | 0.00 | 88 | |
| 20260509081826 | 56 | 349 | 0.0 | 0.0 | 0.00 | 0.00 | 0.00 | 87 | |
| 20260509080327 | 56 | 349 | 0.0 | 0.0 | 0.00 | 0.00 | 0.00 | 87 | |
| 20260509074845 | 57 | 349 | 1.0 | 1.0 | 0.00 | 0.00 | 0.00 | 85 | |
| 20260509073321 | 57 | 349 | 0.0 | 1.0 | 0.00 | 0.00 | 0.00 | 84 | |
| 20260509071819 | 58 | 349 | 1.0 | 1.0 | 0.00 | 0.00 | 0.00 | 83 | |
| 20260509070317 | 59 | 349 | 1.0 | 1.0 | 0.00 | 0.00 | 0.00 | 81 | |
| 20260509064814 | 61 | 349 | 1.0 | 1.0 | 0.00 | 0.00 | 0.00 | 78 | |
| 20260509063335 | 63 | 349 | 1.0 | 2.0 | 0.00 | 0.00 | 0.00 | 74 | |
| 20260509061833 | 65 | 161 | 0.0 | 2.0 | 0.00 | 0.00 | 0.00 | 71 | |
| 20260509060312 | 67 | 161 | 0.0 | 0.0 | 0.00 | 0.00 | 0.00 | 68 | |
| 20260509054830 | 67 | 161 | 0.0 | 2.0 | 0.00 | 0.00 | 0.00 | 63 | |
| 20260509053326 | 68 | 165 | 0.0 | 2.0 | 0.00 | 0.00 | 0.00 | 62 | |
| 20260509051828 | 68 | 165 | 0.0 | 3.0 | 0.00 | 0.00 | 0.00 | 61 | |
| 20260509050346 | 68 | 145 | 2.0 | 4.0 | 0.00 | 0.00 | 0.00 | 60 | |
| 20260509044823 | 69 | 159 | 1.0 | 3.0 | 0.00 | 0.00 | 0.00 | 59 | |
| 20260509043325 | 69 | 146 | 2.0 | 4.0 | 0.00 | 0.00 | 0.00 | 58 | |
| 20260509041823 | 69 | 149 | 1.0 | 2.0 | 0.00 | 0.00 | 0.00 | 59 | |
| 20260509040325 | 69 | 148 | 2.0 | 5.0 | 0.00 | 0.00 | 0.00 | 59 | |
| 20260509034843 | 70 | 153 | 0.0 | 2.0 | 0.00 | 0.00 | 0.00 | 58 | |
| 20260509033319 | 70 | 189 | 2.0 | 4.0 | 0.00 | 0.00 | 0.00 | 55 | |
| 20260509031821 | 70 | 141 | 2.0 | 4.0 | 0.00 | 0.00 | 0.00 | 58 | |
| 20260509030320 | 70 | 148 | 1.0 | 5.0 | 0.00 | 0.00 | 0.00 | 55 | |
| 20260509024822 | 69 | 133 | 2.0 | 7.0 | 0.00 | 0.00 | 0.00 | 55 | |
| 20260509023322 | 69 | 141 | 1.0 | 5.0 | 0.00 | 0.00 | 0.00 | 55 | |
| 20260509021819 | 69 | 136 | 2.0 | 8.0 | 0.00 | 0.00 | 0.00 | 53 | |
| 20260509020322 | 69 | 132 | 1.0 | 5.0 | 0.00 | 0.00 | 0.00 | 53 | 1020.1 |
| 20260509014821 | 69 | 36 | 2.0 | 4.0 | 0.00 | 0.00 | 0.00 | 54 | |
| 20260509013341 | 68 | 138 | 1.0 | 9.0 | 0.00 | 0.00 | 0.00 | 57 | |
| 20260509011843 | 67 | 132 | 2.0 | 8.0 | 0.00 | 0.00 | 0.00 | 56 | |
| 20260509010320 | 67 | 144 | 3.0 | 9.0 | 0.00 | 0.00 | 0.00 | 57 | 792.8 |
| 20260509004843 | 67 | 113 | 0.0 | 8.0 | 0.00 | 0.00 | 0.00 | 60 | 695.2 |
| 20260509003320 | 67 | 153 | 2.0 | 4.0 | 0.00 | 0.00 | 0.00 | 60 | 397.9 |
| 20260509001817 | 65 | 9 | 0.0 | 8.0 | 0.00 | 0.00 | 0.00 | 62 | 563.0 |
| 20260509000318 | 64 | 134 | 0.0 | 3.0 | 0.00 | 0.00 | 0.00 | 67 | |
| 20260508234813 | 63 | 141 | 1.0 | 10.0 | 0.00 | 0.00 | 0.00 | 68 | |
| 20260508233315 | 60 | 140 | 1.0 | 4.0 | 0.00 | 0.00 | 0.00 | 80 | |
| 20260508231814 | 58 | 88 | 0.0 | 2.0 | 0.00 | 0.00 | 0.00 | 90 | |
| 20260508230330 | 56 | 53 | 0.0 | 2.0 | 0.00 | 0.00 | 0.00 | 92 | |
| 20260508224811 | 54 | 57 | 1.0 | 2.0 | 0.00 | 0.00 | 0.00 | 93 | |
| 20260508223331 | 52 | 327 | 0.0 | 2.0 | 0.00 | 0.00 | 0.00 | 93 | |
| 20260508221850 | 51 | 323 | 0.0 | 1.0 | 0.00 | 0.00 | 0.00 | 93 | |
| 20260508220314 | 50 | 344 | 1.0 | 2.0 | 0.00 | 0.00 | 0.00 | 93 | |
| 20260508214816 | 48 | 329 | 1.0 | 3.0 | 0.00 | 0.00 | 0.00 | 93 | |
| 20260508213319 | 47 | 327 | 1.0 | 2.0 | 0.00 | 0.00 | 0.00 | 93 | |
| 20260508211817 | 46 | 318 | 1.0 | 2.0 | 0.00 | 0.00 | 0.00 | 93 | |
| 20260508204848 | 46 | 327 | 1.0 | 3.0 | 0.00 | 0.00 | 0.00 | 93 | |
| 20260508203324 | 45 | 329 | 2.0 | 3.0 | 0.00 | 0.00 | 0.00 | 93 | |
| 20260508201840 | 45 | 329 | 1.0 | 3.0 | 0.00 | 0.00 | 0.00 | 93 | |
| 20260508200320 | 45 | 326 | 1.0 | 2.0 | 0.00 | 0.00 | 0.00 | 93 |